KB6CYS Weather Reports


Display with metric or nautical units.
time (UTC)temp
F
wind
direction
speed
MPH
gust
MPH
rain 1hr
in
rain 24hr
in
rain mn
in
humidity
%
barometer
mb
20260510211503 74 199 6.0 13.0 0.00 0.00 0.00 1012.9
20260510211002 75 213 5.0 12.0 0.00 0.00 0.00 1012.9
20260510210502 75 197 5.0 16.0 0.00 0.00 0.00 1013.2
20260510210003 74 225 8.0 16.0 0.00 0.00 0.00 1012.6
20260510205524 74 217 6.0 13.0 0.00 0.00 0.00 1012.9
20260510205004 75 210 7.0 13.0 0.00 0.00 0.00 1012.9
20260510204502 75 198 5.0 11.0 0.00 0.00 0.00 1012.9
20260510204003 75 223 5.0 12.0 0.00 0.00 0.00 1012.6
20260510203502 75 196 6.0 13.0 0.00 0.00 0.00 1012.6
20260510203003 75 222 6.0 13.0 0.00 0.00 0.00 1012.6
20260510202503 75 204 5.0 13.0 0.00 0.00 0.00 1012.2
20260510202002 75 216 6.0 11.0 0.00 0.00 0.00 1012.9
20260510201503 74 184 6.0 12.0 0.00 0.00 0.00 1012.6
20260510201002 74 218 6.0 12.0 0.00 0.00 0.00 1012.6
20260510200503 74 182 5.0 12.0 0.00 0.00 0.00 1012.9
20260510200003 73 200 6.0 12.0 0.00 0.00 0.00 1013.2
20260510195503 74 238 7.0 11.0 0.00 0.00 0.00 1012.6
20260510195002 75 190 6.0 11.0 0.00 0.00 0.00 1012.6
20260510194524 75 175 5.0 11.0 0.00 0.00 0.00 1012.6
20260510194003 73 172 5.0 11.0 0.00 0.00 0.00 1012.2
20260510193504 73 197 7.0 12.0 0.00 0.00 0.00 1012.6
20260510193024 73 223 5.0 12.0 0.00 0.00 0.00 1012.2
20260510192503 73 213 6.0 12.0 0.00 0.00 0.00 1012.9
20260510192003 72 225 6.0 12.0 0.00 0.00 0.00 1012.6
20260510191504 71 212 6.0 14.0 0.00 0.00 0.00 1012.9
20260510191002 71 245 6.0 14.0 0.00 0.00 0.00 1012.6
20260510190503 72 242 6.0 13.0 0.00 0.00 0.00 1012.9
20260510190002 72 232 6.0 13.0 0.00 0.00 0.00 1012.6
20260510185524 72 238 9.0 17.0 0.00 0.00 0.00 1012.9
20260510185003 72 236 10.0 17.0 0.00 0.00 0.00 1012.9
20260510184524 73 198 5.0 12.0 0.00 0.00 0.00 1012.6
20260510184003 73 226 7.0 12.0 0.00 0.00 0.00 1012.9
20260510183503 74 213 6.0 10.0 0.00 0.00 0.00 1012.2
20260510183002 75 211 4.0 8.0 0.00 0.00 0.00 1012.6
20260510182503 74 195 2.0 10.0 0.00 0.00 0.00 1012.9
20260510182003 74 183 5.0 12.0 0.00 0.00 0.00 1013.6
20260510181502 73 166 4.0 12.0 0.00 0.00 0.00 1012.9
20260510181003 72 182 3.0 5.0 0.00 0.00 0.00 1012.9
20260510180503 72 76 2.0 5.0 0.00 0.00 0.00 1012.9
20260510180024 72 25 3.0 5.0 0.00 0.00 0.00 1012.9
20260510175525 73 209 2.0 7.0 0.00 0.00 0.00 1012.9
20260510175003 72 152 4.0 7.0 0.00 0.00 0.00 1012.9
20260510174503 70 164 4.0 7.0 0.00 0.00 0.00 1012.6
20260510174003 71 251 2.0 4.0 0.00 0.00 0.00 1012.6
20260510173502 70 333 1.0 5.0 0.00 0.00 0.00 1012.9
20260510173003 70 107 2.0 8.0 0.00 0.00 0.00 1012.2
20260510172503 69 191 4.0 8.0 0.00 0.00 0.00 1012.6
20260510172024 68 246 2.0 6.0 0.00 0.00 0.00 1012.6
20260510171503 68 284 3.0 6.0 0.00 0.00 0.00 1012.9
20260510171024 68 278 3.0 5.0 0.00 0.00 0.00 1012.6
20260510170504 68 234 3.0 5.0 0.00 0.00 0.00 1012.2
20260510170003 68 182 2.0 6.0 0.00 0.00 0.00 1012.6
20260510165524 67 207 3.0 6.0 0.00 0.00 0.00 1012.2
20260510165024 67 135 1.0 7.0 0.00 0.00 0.00 1012.6
20260510164525 66 256 2.0 7.0 0.00 0.00 0.00 1011.9
20260510164003 66 281 1.0 7.0 0.00 0.00 0.00 1011.9
20260510163503 66 235 4.0 6.0 0.00 0.00 0.00 1012.2
20260510163002 66 242 2.0 4.0 0.00 0.00 0.00 1011.9
20260510162504 66 252 2.0 5.0 0.00 0.00 0.00 1011.9
20260510162004 65 246 2.0 6.0 0.00 0.00 0.00 1011.9
20260510161524 64 253 3.0 6.0 0.00 0.00 0.00 1012.6
20260510161003 64 287 2.0 6.0 0.00 0.00 0.00 1012.2
20260510160502 63 263 3.0 7.0 0.00 0.00 0.00 1011.9
20260510160003 63 300 3.0 7.0 0.00 0.00 0.00 1011.9
20260510155525 64 280 2.0 6.0 0.00 0.00 0.00 1012.2
20260510155026 63 264 3.0 6.0 0.00 0.00 0.00 1011.9
20260510154524 64 288 4.0 6.0 0.00 0.00 0.00 1011.9
20260510154026 63 240 3.0 7.0 0.00 0.00 0.00 1012.2
20260510153504 63 285 2.0 7.0 0.00 0.00 0.00 1012.2
20260510153003 64 282 2.0 5.0 0.00 0.00 0.00 1012.6
20260510152503 63 270 2.0 5.0 0.00 0.00 0.00 1011.9
20260510152004 63 290 2.0 5.0 0.00 0.00 0.00 1011.9
20260510151524 63 262 2.0 4.0 0.00 0.00 0.00 1012.2
20260510151002 62 286 1.0 5.0 0.00 0.00 0.00 1012.2
20260510150502 62 253 3.0 5.0 0.00 0.00 0.00 1012.6
20260510150004 62 240 2.0 4.0 0.00 0.00 0.00 1012.2
20260510145502 63 210 2.0 4.0 0.00 0.00 0.00 1012.2
20260510145024 63 217 2.0 4.0 0.00 0.00 0.00 1012.2
20260510144503 63 222 2.0 4.0 0.00 0.00 0.00 1012.6
20260510144004 63 155 2.0 3.0 0.00 0.00 0.00 1012.2
20260510143503 63 194 1.0 4.0 0.00 0.00 0.00 1011.9
20260510143002 63 178 2.0 4.0 0.00 0.00 0.00 1011.9
20260510142503 62 178 2.0 4.0 0.00 0.00 0.00 1011.9
20260510142003 62 100 1.0 4.0 0.00 0.00 0.00 1011.5
20260510141503 62 190 2.0 4.0 0.00 0.00 0.00 1011.9
20260510141025 62 195 3.0 4.0 0.00 0.00 0.00 1011.5
20260510140503 62 209 2.0 4.0 0.00 0.00 0.00 1011.9
20260510140003 61 202 2.0 4.0 0.00 0.00 0.00 1011.5
20260510135502 61 235 2.0 4.0 0.00 0.00 0.00 1011.9
20260510135003 61 222 1.0 4.0 0.00 0.00 0.00 1011.9
20260510134003 61 245 1.0 3.0 0.00 0.00 0.00 1011.5
20260510133504 61 293 0.0 2.0 0.00 0.00 0.00 1011.9
20260510133003 61 274 1.0 2.0 0.00 0.00 0.00 1011.9
20260510132502 61 316 0.0 2.0 0.00 0.00 0.00 1011.5
20260510132003 61 311 1.0 1.0 0.00 0.00 0.00 1011.5
20260510131503 61 270 0.0 2.0 0.00 0.00 0.00 1011.5
20260510131024 61 356 1.0 2.0 0.00 0.00 0.00 1011.5
20260510130503 61 286 1.0 2.0 0.00 0.00 0.00 1011.5
20260510130003 61 62 1.0 2.0 0.00 0.00 0.00 1011.5
20260510125503 61 43 1.0 2.0 0.00 0.00 0.00 1011.2
20260510125025 61 48 1.0 2.0 0.00 0.00 0.00 1010.9
20260510124502 61 240 0.0 3.0 0.00 0.00 0.00 1011.2
20260510124003 61 253 2.0 5.0 0.00 0.00 0.00 1011.5
20260510123502 61 231 3.0 5.0 0.00 0.00 0.00 1011.9
20260510123025 61 287 1.0 3.0 0.00 0.00 0.00 1011.9
20260510122502 61 244 2.0 3.0 0.00 0.00 0.00 1011.9
20260510122003 61 167 1.0 4.0 0.00 0.00 0.00 1011.9
20260510121503 61 145 1.0 4.0 0.00 0.00 0.00 1012.2
20260510121002 61 231 2.0 3.0 0.00 0.00 0.00 1011.9
20260510120503 61 212 1.0 3.0 0.00 0.00 0.00 1012.2
20260510120024 61 167 1.0 2.0 0.00 0.00 0.00 1011.9
20260510115504 61 235 1.0 2.0 0.00 0.00 0.00 1011.9
20260510115026 61 230 1.0 3.0 0.00 0.00 0.00 1011.5
20260510114526 61 289 2.0 3.0 0.00 0.00 0.00 1011.5
20260510114025 61 279 1.0 3.0 0.00 0.00 0.00 1011.9
20260510113524 61 205 1.0 3.0 0.00 0.00 0.00 1011.9
20260510113003 61 214 1.0 3.0 0.00 0.00 0.00 1011.9
20260510112524 61 245 1.0 3.0 0.00 0.00 0.00 1011.5
20260510112024 61 318 0.0 2.0 0.00 0.00 0.00 1011.9
20260510111502 61 295 1.0 2.0 0.00 0.00 0.00 1012.2
20260510111003 61 270 0.0 2.0 0.00 0.00 0.00 1012.6
20260510110524 61 232 1.0 2.0 0.00 0.00 0.00 1012.2
20260510110005 61 213 0.0 2.0 0.00 0.00 0.00 1011.9
20260510105502 60 343 0.0 2.0 0.00 0.00 0.00 1011.9
20260510105024 60 15 1.0 3.0 0.00 0.00 0.00 1011.5
20260510104502 61 84 2.0 3.0 0.00 0.00 0.00 1012.2
20260510104024 60 269 0.0 5.0 0.00 0.00 0.00 1011.9
20260510103503 60 262 2.0 5.0 0.00 0.00 0.00 1011.9
20260510103003 60 248 3.0 5.0 0.00 0.00 0.00 1011.9
20260510102502 60 268 2.0 5.0 0.00 0.00 0.00 1012.2
20260510102003 60 269 3.0 5.0 0.00 0.00 0.00 1012.2
20260510101503 60 247 3.0 5.0 0.00 0.00 0.00 1012.2
20260510101004 60 238 3.0 5.0 0.00 0.00 0.00 1012.2
20260510100502 60 251 3.0 5.0 0.00 0.00 0.00 1012.2
20260510100003 60 235 3.0 5.0 0.00 0.00 0.00 1011.9
20260510095503 61 254 2.0 3.0 0.00 0.00 0.00 1012.2
20260510095003 61 228 1.0 3.0 0.00 0.00 0.00 1011.9
20260510094502 61 199 1.0 5.0 0.00 0.00 0.00 1012.2
20260510094002 61 219 2.0 5.0 0.00 0.00 0.00 1011.9
20260510093525 61 221 1.0 4.0 0.00 0.00 0.00 1012.2
20260510093003 60 251 1.0 4.0 0.00 0.00 0.00 1012.2
20260510092503 60 243 3.0 4.0 0.00 0.00 0.00 1012.2
20260510092003 60 214 2.0 4.0 0.00 0.00 0.00 1012.6
20260510091502 60 276 2.0 4.0 0.00 0.00 0.00 1012.2
20260510091003 61 212 2.0 5.0 0.00 0.00 0.00 1012.2
20260510090503 61 218 3.0 5.0 0.00 0.00 0.00 1012.2
20260510090024 61 230 2.0 4.0 0.00 0.00 0.00 1011.9
20260510085503 61 240 1.0 4.0 0.00 0.00 0.00 1011.9
20260510085025 61 216 2.0 4.0 0.00 0.00 0.00 1011.9
20260510084524 61 246 2.0 4.0 0.00 0.00 0.00 1011.9
20260510084004 61 172 2.0 5.0 0.00 0.00 0.00 1011.9
20260510083504 61 151 2.0 5.0 0.00 0.00 0.00 1012.2
20260510083003 61 211 3.0 5.0 0.00 0.00 0.00 1012.2
20260510082503 61 226 2.0 5.0 0.00 0.00 0.00 1012.2
20260510082003 61 139 1.0 4.0 0.00 0.00 0.00 1012.2
20260510081502 61 100 2.0 4.0 0.00 0.00 0.00 1012.6
20260510081003 61 132 2.0 6.0 0.00 0.00 0.00 1011.9
20260510080504 61 197 4.0 6.0 0.00 0.00 0.00 1012.2
20260510080003 61 212 2.0 4.0 0.00 0.00 0.00 1012.6
20260510075502 61 199 2.0 3.0 0.00 0.00 0.00 1012.6
20260510075003 61 237 2.0 4.0 0.00 0.00 0.00 1012.9
20260510074502 61 181 2.0 5.0 0.00 0.00 0.00 1012.9
20260510074025 60 192 3.0 5.0 0.00 0.00 0.00 1012.9
20260510073503 60 235 1.0 3.0 0.00 0.00 0.00 1012.6
20260510073004 61 266 1.0 4.0 0.00 0.00 0.00 1012.9
20260510072502 61 136 1.0 4.0 0.00 0.00 0.00 1013.2
20260510072003 61 181 2.0 7.0 0.00 0.00 0.00 1012.9
20260510071503 61 132 2.0 7.0 0.00 0.00 0.00 1012.6
20260510071003 61 115 3.0 7.0 0.00 0.00 0.00 1013.2
20260510070524 61 152 3.0 7.0 0.00 0.00 0.00 1013.2
20260510070004 61 230 2.0 3.0 0.00 0.00 0.00 1012.6
20260510065503 62 186 1.0 5.0 0.00 0.00 0.00 1012.6
20260510065003 62 165 3.0 5.0 0.00 0.00 0.00 1012.9
20260510064524 62 191 3.0 5.0 0.00 0.00 0.00 1012.9
20260510064003 62 212 2.0 5.0 0.00 0.00 0.00 1012.9
20260510063504 62 160 1.0 7.0 0.00 0.00 0.00 1012.6
20260510063025 62 173 3.0 7.0 0.00 0.00 0.00 1012.9
20260510062503 61 188 3.0 6.0 0.00 0.00 0.00 1012.9
20260510062002 61 201 3.0 7.0 0.00 0.00 0.00 1012.9
20260510061503 62 187 4.0 7.0 0.00 0.00 0.00 1012.6
20260510061003 62 196 3.0 7.0 0.00 0.00 0.00 1013.2
20260510060503 62 196 2.0 7.0 0.00 0.00 0.00 1012.6
20260510060002 62 173 3.0 6.0 0.00 0.00 0.00 1013.2
20260510055503 62 173 3.0 6.0 0.00 0.00 0.00 1013.2
20260510055002 62 212 2.0 6.0 0.00 0.00 0.00 1013.2
20260510054503 62 184 4.0 8.0 0.00 0.00 0.00 1013.2
20260510054002 62 176 5.0 8.0 0.00 0.00 0.00 1013.2
20260510053501 63 164 3.0 6.0 0.00 0.00 0.00 1012.9
20260510053003 63 176 3.0 6.0 0.00 0.00 0.00 1012.9
20260510052502 63 184 4.0 6.0 0.00 0.00 0.00 1013.2
20260510052024 63 176 2.0 5.0 0.00 0.00 0.00 1013.2
20260510051524 63 217 1.0 3.0 0.00 0.00 0.00 1013.2
20260510051002 62 213 2.0 5.0 0.00 0.00 0.00 1013.2
20260510050503 62 211 2.0 5.0 0.00 0.00 0.00 1013.2
20260510050002 62 211 2.0 5.0 0.00 0.00 0.00 1013.2
20260510045501 62 223 3.0 4.0 0.00 0.00 0.00 1013.6
20260510045023 62 219 3.0 4.0 0.00 0.00 0.00 1013.2
20260510044503 62 244 2.0 4.0 0.00 0.00 0.00 1013.2
20260510044002 63 231 2.0 5.0 0.00 0.00 0.00 1013.2
20260510043504 63 218 3.0 5.0 0.00 0.00 0.00 1012.9
20260510043001 63 166 4.0 5.0 0.00 0.00 0.00 1012.9
20260510042502 63 175 4.0 5.0 0.00 0.00 0.00 1012.6
20260510042002 63 180 3.0 4.0 0.00 0.00 0.00 1012.9
20260510041504 63 160 3.0 4.0 0.00 0.00 0.00 1012.6
20260510041023 63 142 3.0 5.0 0.00 0.00 0.00 1012.9
20260510040502 63 148 3.0 5.0 0.00 0.00 0.00 1012.2
20260510040001 63 125 2.0 4.0 0.00 0.00 0.00 1012.6
20260510035503 64 140 2.0 6.0 0.00 0.00 0.00 1012.2
20260510035002 64 141 3.0 6.0 0.00 0.00 0.00 1012.2
20260510034502 64 146 3.0 6.0 0.00 0.00 0.00 1012.2
20260510034002 64 158 3.0 5.0 0.00 0.00 0.00 1012.2
20260510033504 65 163 3.0 8.0 0.00 0.00 0.00 1012.2
20260510033023 65 153 3.0 8.0 0.00 0.00 0.00 1011.9
20260510032502 65 144 3.0 7.0 0.00 0.00 0.00 1011.5
20260510032002 65 174 4.0 7.0 0.00 0.00 0.00 1012.6
20260510031524 65 163 3.0 8.0 0.00 0.00 0.00 1011.9
20260510031002 65 179 4.0 8.0 0.00 0.00 0.00 1011.5
20260510030503 66 176 4.0 9.0 0.00 0.00 0.00 1011.9
20260510030002 66 168 4.0 9.0 0.00 0.00 0.00 1011.5
20260510025524 67 146 3.0 9.0 0.00 0.00 0.00 1011.5
20260510025002 67 172 5.0 9.0 0.00 0.00 0.00 1011.2
20260510024502 67 183 5.0 9.0 0.00 0.00 0.00 1011.2
20260510024003 67 166 4.0 9.0 0.00 0.00 0.00 1011.5
20260510023523 68 169 4.0 9.0 0.00 0.00 0.00 1011.2
20260510023002 68 161 4.0 9.0 0.00 0.00 0.00 1011.2
20260510022502 69 179 6.0 8.0 0.00 0.00 0.00 1010.9
20260510022003 69 173 5.0 9.0 0.00 0.00 0.00 1011.5
20260510021502 70 172 4.0 11.0 0.00 0.00 0.00 1011.2
20260510021001 71 169 6.0 11.0 0.00 0.00 0.00 1011.2
20260510020502 72 180 5.0 9.0 0.00 0.00 0.00 1011.2
20260510020024 72 172 5.0 10.0 0.00 0.00 0.00 1011.2
20260510015501 72 180 6.0 10.0 0.00 0.00 0.00 1010.9
20260510015023 73 189 5.0 11.0 0.00 0.00 0.00 1011.2
20260510014502 73 169 4.0 11.0 0.00 0.00 0.00 1011.2
20260510014002 74 181 5.0 11.0 0.00 0.00 0.00 1011.5
20260510013502 74 170 6.0 11.0 0.00 0.00 0.00 1011.5
20260510013001 73 212 6.0 11.0 0.00 0.00 0.00 1011.2
20260510012523 74 201 5.0 10.0 0.00 0.00 0.00 1011.5
20260510012003 75 181 5.0 10.0 0.00 0.00 0.00 1011.5
20260510011503 74 193 5.0 9.0 0.00 0.00 0.00 1011.5
20260510011003 74 174 6.0 11.0 0.00 0.00 0.00 1011.2
20260510010502 74 211 6.0 11.0 0.00 0.00 0.00 1011.2
20260510010001 74 206 5.0 11.0 0.00 0.00 0.00 1011.2
20260510005503 74 212 6.0 11.0 0.00 0.00 0.00 1011.5
20260510005002 74 203 5.0 10.0 0.00 0.00 0.00 1011.2
20260510004502 74 214 5.0 10.0 0.00 0.00 0.00 1011.2
20260510004002 74 187 7.0 10.0 0.00 0.00 0.00 1010.9
20260510003502 74 220 6.0 13.0 0.00 0.00 0.00 1010.5
20260510003003 75 193 5.0 13.0 0.00 0.00 0.00 1010.9
20260510002523 76 181 6.0 12.0 0.00 0.00 0.00 1011.5
20260510002002 75 201 6.0 13.0 0.00 0.00 0.00 1010.9
20260510001503 75 179 6.0 13.0 0.00 0.00 0.00 1010.5
20260510001001 76 190 6.0 12.0 0.00 0.00 0.00 1010.9
20260510000502 76 179 5.0 12.0 0.00 0.00 0.00 1010.9
20260510000023 75 213 7.0 12.0 0.00 0.00 0.00 1010.5
20260509235503 76 193 5.0 12.0 0.00 0.00 0.00 1010.5
20260509235023 76 197 5.0 12.0 0.00 0.00 0.00 1010.9
20260509234502 76 185 5.0 11.0 0.00 0.00 0.00 1010.9
20260509234003 76 183 6.0 12.0 0.00 0.00 0.00 1010.9
20260509233502 76 178 6.0 14.0 0.00 0.00 0.00 1010.5
20260509233023 75 174 8.0 14.0 0.00 0.00 0.00 1010.9
20260509232524 75 225 7.0 13.0 0.00 0.00 0.00 1010.5
20260509232002 75 206 4.0 12.0 0.00 0.00 0.00 1010.9
20260509231501 76 190 8.0 12.0 0.00 0.00 0.00 1010.5
20260509231002 76 199 6.0 12.0 0.00 0.00 0.00 1010.9
20260509230503 76 185 7.0 12.0 0.00 0.00 0.00 1010.9
20260509230002 76 186 7.0 12.0 0.00 0.00 0.00 1011.2
20260509225502 75 181 5.0 11.0 0.00 0.00 0.00 1010.9
20260509225001 75 220 7.0 12.0 0.00 0.00 0.00 1010.9
20260509224502 75 209 6.0 12.0 0.00 0.00 0.00 1010.2
20260509224002 76 215 6.0 12.0 0.00 0.00 0.00 1010.5
20260509223502 76 183 5.0 10.0 0.00 0.00 0.00 1010.9
20260509223023 75 196 5.0 13.0 0.00 0.00 0.00 1011.5
20260509222502 75 224 5.0 13.0 0.00 0.00 0.00 1011.2
20260509222024 75 220 6.0 11.0 0.00 0.00 0.00 1011.5
20260509221502 75 216 6.0 12.0 0.00 0.00 0.00 1011.2
20260509221024 74 237 7.0 12.0 0.00 0.00 0.00 1011.2
20260509220501 75 255 7.0 11.0 0.00 0.00 0.00 1011.5
20260509220002 75 226 5.0 13.0 0.00 0.00 0.00 1011.2
20260509215502 74 236 7.0 13.0 0.00 0.00 0.00 1011.2
20260509215003 75 233 6.0 12.0 0.00 0.00 0.00 1011.2
20260509214524 74 217 5.0 12.0 0.00 0.00 0.00 1011.5
20260509214003 74 232 7.0 12.0 0.00 0.00 0.00 1010.5
20260509213503 76 237 8.0 12.0 0.00 0.00 0.00 1010.9
20260509213001 75 206 6.0 12.0 0.00 0.00 0.00 1011.2
20260509212502 75 208 5.0 13.0 0.00 0.00 0.00 1011.2
20260509212003 74 228 8.0 13.0 0.00 0.00 0.00 1011.5
20260509211524 74 200 5.0 16.0 0.00 0.00 0.00 1011.5